Wind_Speed
81 79 73 65 58 52 47 44 38 44 49 47 41 35 30 25 22 20 18 15 14 15 17 18 18 17 18 18 19 18 18 18 17 18 17 15 11 11 9 9 9 9 10 9
80 75 68 64 59 54 50 45 44 50 52 47 41 35 30 26 22 19 14 13 13 14 15 17 17 18 18 18 17 18 17 16 16 16 15 14 13 14 12 13 13 14 15 17
75 71 64 60 58 57 54 49 53 56 53 46 41 37 31 26 25 19 14 9 9 9 11 13 16 17 16 16 16 16 16 15 15 16 17 18 16 17 17 17 16 19 18 21
72 65 60 57 55 57 55 55 59 57 53 47 42 38 32 28 23 16 10 6 6 9 10 11 13 16 17 17 17 16 17 16 17 19 20 20 19 19 18 19 22 23 23 25
68 62 58 54 53 55 55 59 62 58 50 46 42 40 35 27 22 16 9 5 4 6 10 10 11 12 13 16 17 17 18 18 20 22 22 22 22 21 20 23 26 28 31 28
60 56 52 50 52 53 55 61 62 56 51 47 44 39 35 27 22 16 11 6 5 5 10 10 10 10 11 12 15 17 18 19 21 23 25 26 27 20 25 29 30 34 35 36
55 55 50 50 50 50 52 61 60 55 52 48 42 39 34 28 22 18 13 7 6 7 7 10 10 10 11 12 14 16 18 20 24 25 27 31 26 27 30 35 37 39 40 42
54 50 47 46 46 48 52 58 59 55 52 47 43 39 35 30 25 21 16 12 9 8 7 7 10 11 11 12 14 16 19 22 25 27 30 32 33 34 35 39 41 43 45 48
48 45 44 42 44 46 50 57 58 54 50 47 43 38 34 31 28 23 18 16 14 11 10 10 7 7 10 14 16 18 21 23 26 28 32 34 33 35 38 42 43 43 46 47
43 41 39 43 41 44 46 55 56 52 48 46 43 39 34 30 28 25 22 20 19 16 15 14 13 13 12 13 14 17 21 25 27 29 33 35 36 37 39 41 46 47 47 47
39 37 39 39 38 42 46 50 52 51 48 45 41 38 35 32 30 28 25 24 22 22 21 20 20 19 19 19 19 21 24 27 28 31 34 38 39 40 42 44 46 47 46 46
40 39 38 34 37 42 42 48 49 52 49 45 41 38 35 33 33 30 29 29 26 25 26 27 27 27 26 25 27 28 29 31 35 35 35 37 42 44 45 45 44 44 45 46
36 35 37 34 36 37 40 42 44 48 47 46 42 40 37 36 34 32 31 29 29 30 31 31 31 32 32 33 34 35 35 38 38 38 35 39 42 44 43 44 43 44 44 45
34 33 31 31 32 32 30 41 44 42 45 44 42 41 39 37 35 34 33 32 32 33 33 34 35 36 38 38 40 41 36 37 36 37 37 40 40 39 40 41 42 43 44 45
29 29 27 30 37 37 42 33 38 38 41 42 40 40 39 38 37 37 36 35 35 35 35 37 38 39 41 42 43 37 28 35 39 39 38 38 38 39 40 41 42 44 46 47
28 27 27 34 43 38 35 37 39 38 36 36 38 39 37 36 37 37 37 37 37 37 39 40 42 40 41 43 39 29 31 33 36 39 41 40 41 41 42 44 46 47 48 49
26 29 26 27 34 36 36 32 28 29 30 30 32 34 35 35 35 35 35 37 37 39 39 40 38 36 37 37 36 31 31 35 38 40 41 41 43 45 45 47 48 49 49 49
32 29 28 27 28 30 31 32 33 32 29 30 30 31 30 31 30 32 33 34 35 35 35 34 32 35 36 37 35 35 35 36 38 40 42 44 46 47 46 46 47 47 49 50
26 26 25 24 23 23 24 25 26 28 28 28 26 25 24 27 25 27 28 30 31 33 34 34 35 36 37 35 34 36 38 39 40 40 40 41 42 44 46 47 48 51 54 55
27 26 26 26 25 23 22 23 24 24 25 24 23 22 23 24 24 26 28 30 32 33 32 33 35 37 37 37 38 38 39 40 41 41 43 45 47 48 49 51 53 54 56 58
24 23 22 23 24 25 24 26 26 26 27 25 23 22 23 23 25 27 31 33 34 37 38 38 39 39 38 39 39 40 40 39 40 42 45 46 48 51 54 57 58 59 60 58
28 26 26 26 26 25 29 30 29 29 29 27 26 27 28 29 30 32 33 34 37 39 38 40 42 40 39 39 39 39 40 43 46 48 50 53 55 56 58 59 61 60 58 53
35 27 25 29 31 34 36 34 31 30 30 30 30 31 32 32 31 32 33 38 41 39 40 41 38 36 37 40 42 44 47 50 53 56 60 63 63 62 59 56 54 51 48 50
35 32 31 33 35 33 30 30 32 33 34 35 37 36 34 33 33 35 35 37 37 39 37 37 39 42 46 49 51 53 56 59 61 62 61 60 58 57 57 56 56 55 53 53
32 32 34 34 29 27 28 27 25 26 26 26 26 28 29 30 33 33 34 35 38 38 40 43 46 48 51 53 54 55 57 58 59 59 59 58 56 55 53 51 49 49 51 53
24 27 28 25 24 24 23 24 26 27 27 28 28 28 30 32 33 35 36 37 40 42 45 47 48 49 51 53 54 53 51 50 51 52 51 50 49 51 51 53 50 48 49 54
28 28 28 28 28 27 26 27 28 29 30 32 33 34 35 38 39 39 40 41 43 45 46 46 44 41 40 41 42 44 46 47 48 49 53 56 51 49 48 48 47 52 56 61
Wind_Direction
194 197 197 195 193 194 197 202 198 190 184 180 175 175 177 180 184 189 197 203 210 221 223 226 227 224 222 219 219 222 225 230 232 225 215 214 211 213 216 226 255 281 293 295
196 198 196 192 188 189 194 195 191 185 185 179 174 177 178 182 187 188 193 208 220 224 228 224 223 222 220 220 220 222 222 224 224 219 219 208 207 220 233 244 262 284 292 294
195 195 193 190 186 186 190 188 187 184 184 178 177 179 180 185 183 181 195 208 232 230 216 219 219 220 220 220 220 217 226 225 224 221 213 215 219 232 245 255 269 281 292 290
193 189 190 189 187 187 187 184 185 185 182 179 179 180 183 183 184 192 203 216 233 233 227 228 226 225 224 221 217 222 222 220 225 223 221 229 236 244 256 266 273 280 283 289
187 185 186 186 187 189 187 186 183 183 181 181 183 183 184 186 190 197 211 233 243 234 226 233 238 236 231 226 224 219 219 222 228 230 233 240 243 250 261 270 274 280 283 288
178 178 183 184 188 190 187 186 183 183 182 184 187 186 188 194 197 201 211 228 241 238 224 233 234 231 227 222 220 224 232 235 238 240 244 250 253 263 267 271 277 281 285 289
175 179 181 185 189 190 189 187 186 185 184 185 189 191 194 199 202 207 215 232 253 254 248 236 235 233 231 230 233 238 242 246 249 253 255 260 269 266 271 277 280 283 287 289
176 178 181 186 190 190 189 190 189 188 186 186 192 195 197 203 204 214 221 231 249 262 272 273 249 244 242 242 243 246 250 254 257 259 262 269 273 275 276 277 280 286 288 286
172 175 183 185 188 190 188 191 191 190 189 189 195 200 203 207 210 217 226 235 249 262 275 283 285 272 257 253 255 257 259 262 264 271 275 280 282 282 282 282 285 282 284 287
170 176 180 185 185 189 189 192 193 193 193 194 197 202 207 213 217 223 231 239 250 259 271 279 284 284 281 279 277 270 271 274 276 279 281 287 288 287 287 287 288 290 289 290
171 176 183 178 189 190 192 191 194 194 196 199 200 205 212 217 222 228 235 244 253 260 267 273 280 281 282 284 283 279 280 281 281 282 286 290 291 290 287 288 288 290 292 292
172 178 180 184 190 191 189 191 196 198 200 203 204 208 214 220 227 232 239 246 254 262 269 272 274 281 283 285 284 283 283 284 284 288 290 287 286 286 287 289 290 291 292 293
168 180 181 186 187 188 188 188 198 201 203 207 210 213 218 224 230 236 243 250 258 261 265 270 276 279 282 285 286 287 289 291 292 290 286 284 284 288 291 292 294 293 294 294
167 175 176 179 180 182 181 192 197 205 206 209 213 218 223 228 234 240 244 250 257 262 267 271 274 278 282 285 287 289 293 290 286 284 283 285 289 291 291 291 292 292 292 293
170 173 171 171 164 166 176 188 202 211 210 212 216 222 227 232 238 244 250 254 258 263 268 272 275 279 283 284 286 289 288 283 285 288 289 290 290 288 287 289 290 290 292 294
165 156 168 171 177 171 171 191 201 208 213 215 221 225 230 235 241 247 251 256 261 265 269 274 277 281 281 282 284 285 283 284 285 287 288 290 291 292 294 294 294 294 294 295
147 153 158 168 181 191 199 201 204 205 210 216 222 228 233 238 243 249 254 258 262 265 268 272 276 276 277 280 283 288 286 285 284 286 288 289 291 291 291 293 295 298 298 298
163 162 163 169 177 187 198 208 216 221 227 231 233 236 238 243 245 248 253 258 263 266 270 271 273 275 277 279 284 284 283 282 283 285 287 290 292 294 296 298 300 301 301 300
179 176 179 184 189 195 200 203 208 215 223 227 230 232 234 240 244 250 253 257 260 264 267 271 272 274 278 282 283 283 284 285 286 287 289 293 296 298 298 298 300 300 300 300
190 190 191 193 195 197 204 209 213 218 223 227 229 233 239 245 250 256 262 263 265 269 270 273 275 279 281 283 284 286 290 291 292 291 293 295 296 296 295 294 294 294 293 294
201 199 200 205 209 215 218 222 226 232 235 239 244 250 256 260 262 264 265 269 272 274 275 276 279 279 280 282 286 289 289 289 290 290 291 291 291 292 292 293 294 295 294 294
208 206 211 216 223 228 234 236 237 243 247 253 259 264 265 265 265 266 268 270 272 275 280 279 280 284 289 289 287 287 287 287 289 291 292 292 292 292 293 293 295 297 301 301
221 218 222 232 235 238 241 245 254 262 266 266 263 263 264 264 265 268 272 275 279 281 282 285 292 293 291 289 290 290 290 290 290 291 291 293 297 301 303 303 303 300 292 283
213 224 235 241 244 250 258 260 262 261 262 263 262 259 262 267 268 272 276 275 277 280 284 287 286 286 288 290 292 292 292 293 295 297 300 300 299 300 300 299 297 294 290 288
232 237 243 248 253 255 258 258 256 258 259 260 260 261 262 262 266 268 271 274 277 283 285 286 287 287 287 288 290 292 294 295 297 299 301 303 303 300 298 295 293 295 302 308
223 232 238 239 242 249 253 254 256 259 262 263 265 266 265 266 268 272 273 276 279 281 282 283 284 285 288 291 295 298 300 303 303 303 301 298 294 293 298 301 304 307 311 316
229 234 243 250 251 255 260 262 262 263 265 268 271 272 273 275 276 278 279 280 282 284 286 288 291 294 297 300 301 301 300 297 295 291 290 294 299 300 302 305 307 312 315 318
Height
5574 5592 5607 5620 5632 5645 5658 5666 5673 5682 5690 5696 5702 5709 5715 5721 5726 5731 5735 5738 5740 5742 5743 5745 5746 5748 5750 5752 5754 5756 5758 5760 5761 5764 5765 5767 5768 5771 5772 5773 5774 5773 5773 5775
5563 5583 5597 5611 5622 5636 5650 5658 5668 5677 5686 5692 5699 5707 5713 5720 5725 5730 5734 5736 5737 5738 5739 5740 5741 5744 5746 5748 5750 5753 5755 5757 5759 5761 5765 5765 5767 5768 5769 5770 5770 5770 5770 5769
5558 5576 5591 5605 5615 5628 5641 5651 5661 5671 5680 5690 5697 5704 5711 5718 5724 5728 5731 5733 5733 5734 5736 5737 5738 5740 5743 5745 5748 5750 5752 5754 5757 5760 5761 5762 5764 5765 5766 5766 5766 5765 5766 5763
5552 5570 5587 5600 5612 5622 5633 5642 5654 5668 5676 5685 5694 5702 5709 5716 5721 5726 5728 5730 5731 5732 5733 5734 5736 5737 5740 5742 5744 5747 5749 5752 5754 5756 5758 5759 5760 5761 5761 5761 5761 5760 5760 5758
5549 5567 5583 5595 5608 5618 5628 5639 5650 5663 5675 5683 5691 5698 5706 5713 5719 5723 5726 5728 5729 5729 5731 5732 5733 5735 5737 5739 5742 5744 5747 5750 5751 5753 5755 5756 5756 5757 5758 5757 5755 5754 5752 5753
5550 5567 5582 5594 5605 5617 5624 5637 5648 5660 5671 5678 5687 5697 5705 5712 5717 5720 5723 5725 5726 5727 5729 5730 5731 5733 5735 5738 5740 5742 5745 5747 5748 5749 5751 5751 5751 5755 5752 5750 5749 5747 5746 5744
5552 5567 5579 5591 5604 5615 5624 5635 5646 5656 5666 5675 5685 5694 5701 5708 5713 5716 5720 5723 5725 5726 5727 5728 5730 5731 5733 5736 5738 5740 5741 5743 5744 5745 5746 5743 5748 5748 5746 5743 5741 5739 5737 5734
5553 5566 5578 5590 5602 5611 5622 5633 5643 5653 5663 5673 5681 5689 5697 5703 5709 5713 5717 5720 5722 5724 5725 5726 5728 5730 5732 5733 5735 5736 5737 5738 5738 5738 5738 5738 5738 5738 5739 5735 5734 5731 5727 5722
5555 5566 5578 5590 5600 5609 5620 5630 5640 5652 5662 5671 5678 5686 5693 5700 5705 5710 5714 5717 5719 5721 5723 5725 5726 5727 5728 5730 5731 5732 5732 5732 5733 5732 5730 5730 5731 5731 5728 5724 5721 5719 5715 5712
5558 5569 5579 5588 5598 5608 5617 5628 5639 5650 5659 5667 5675 5682 5689 5696 5701 5706 5710 5713 5715 5718 5719 5721 5723 5724 5725 5726 5726 5726 5726 5726 5725 5725 5722 5721 5721 5719 5716 5714 5711 5706 5703 5699
5559 5569 5579 5587 5597 5606 5615 5627 5637 5647 5656 5664 5672 5679 5686 5692 5697 5701 5706 5709 5711 5713 5715 5717 5718 5719 5720 5721 5721 5721 5720 5719 5718 5716 5714 5712 5709 5707 5704 5701 5696 5693 5690 5687
5562 5570 5579 5588 5596 5605 5615 5625 5636 5644 5653 5662 5669 5675 5681 5686 5690 5696 5699 5702 5706 5708 5710 5711 5712 5713 5714 5714 5714 5713 5713 5712 5709 5709 5707 5702 5697 5694 5690 5687 5685 5682 5678 5674
5563 5571 5579 5588 5596 5605 5614 5625 5633 5641 5650 5657 5664 5671 5676 5680 5685 5690 5694 5697 5700 5701 5703 5704 5705 5705 5706 5706 5705 5703 5703 5700 5699 5697 5695 5690 5685 5682 5680 5676 5674 5670 5667 5663
5565 5573 5580 5588 5596 5605 5616 5623 5629 5638 5646 5653 5660 5665 5670 5675 5679 5684 5688 5691 5692 5694 5695 5696 5697 5697 5697 5696 5694 5693 5694 5689 5686 5684 5682 5678 5676 5673 5670 5666 5663 5660 5656 5652
5567 5573 5580 5589 5598 5606 5616 5620 5626 5635 5643 5649 5655 5660 5665 5669 5673 5676 5680 5683 5685 5685 5687 5687 5688 5688 5687 5685 5684 5684 5682 5677 5673 5672 5671 5668 5666 5663 5660 5657 5653 5649 5645 5641
5568 5575 5583 5590 5597 5603 5611 5617 5625 5631 5638 5644 5649 5655 5659 5663 5666 5669 5671 5674 5676 5677 5677 5677 5678 5678 5677 5673 5673 5674 5670 5668 5665 5662 5659 5656 5653 5651 5648 5644 5641 5637 5633 5629
5569 5577 5584 5592 5599 5605 5611 5618 5624 5629 5634 5640 5644 5648 5652 5656 5659 5661 5664 5665 5666 5667 5667 5668 5668 5668 5665 5664 5662 5663 5661 5658 5654 5651 5648 5646 5643 5640 5636 5633 5629 5625 5620 5616
5573 5579 5586 5593 5599 5605 5610 5615 5620 5625 5629 5633 5638 5642 5647 5649 5651 5653 5655 5656 5657 5658 5658 5659 5658 5657 5655 5654 5655 5652 5650 5648 5644 5641 5638 5635 5631 5628 5625 5621 5617 5612 5607 5602
5575 5580 5585 5591 5597 5602 5607 5611 5615 5620 5626 5628 5633 5636 5639 5641 5644 5645 5647 5648 5648 5649 5649 5649 5649 5647 5645 5645 5644 5642 5640 5637 5634 5631 5627 5624 5620 5616 5612 5608 5604 5599 5593 5588
5575 5580 5585 5590 5595 5600 5605 5609 5612 5615 5618 5622 5627 5630 5633 5636 5637 5638 5640 5639 5639 5639 5641 5639 5639 5637 5636 5634 5632 5631 5629 5625 5622 5619 5616 5612 5608 5604 5600 5596 5591 5585 5579 5573
5575 5579 5584 5590 5594 5598 5601 5604 5607 5611 5614 5617 5621 5624 5626 5629 5630 5630 5630 5629 5630 5629 5630 5630 5628 5627 5626 5624 5622 5620 5617 5614 5611 5607 5603 5599 5595 5591 5586 5581 5576 5570 5564 5558
5573 5578 5582 5586 5589 5593 5594 5597 5601 5604 5609 5612 5615 5617 5618 5619 5620 5619 5620 5620 5620 5619 5620 5618 5617 5618 5616 5612 5610 5607 5604 5601 5597 5594 5591 5586 5581 5576 5571 5566 5559 5553 5546 5540
5570 5574 5578 5581 5584 5585 5587 5593 5598 5601 5602 5604 5606 5608 5609 5610 5611 5611 5611 5610 5609 5609 5606 5604 5606 5604 5601 5599 5598 5595 5591 5588 5584 5580 5575 5569 5563 5557 5551 5546 5541 5537 5533 5528
5564 5568 5572 5574 5576 5579 5584 5588 5591 5592 5592 5593 5595 5597 5599 5600 5600 5600 5600 5599 5599 5597 5597 5597 5595 5592 5588 5586 5583 5579 5575 5571 5566 5561 5557 5552 5547 5542 5537 5532 5527 5521 5516 5510
5559 5563 5564 5567 5572 5574 5576 5578 5580 5581 5583 5585 5586 5587 5589 5590 5590 5590 5590 5589 5587 5587 5586 5583 5581 5578 5575 5572 5567 5564 5559 5555 5551 5546 5541 5536 5531 5526 5521 5517 5511 5506 5501 5496
5554 5556 5558 5562 5565 5567 5569 5570 5572 5573 5574 5575 5577 5577 5578 5579 5579 5579 5579 5578 5577 5575 5572 5570 5567 5564 5561 5558 5554 5549 5545 5540 5536 5532 5528 5524 5519 5515 5509 5504 5499 5493 5488 5481
5548 5550 5552 5554 5557 5559 5560 5561 5562 5564 5565 5565 5566 5567 5567 5567 5567 5567 5566 5564 5563 5561 5558 5556 5553 5550 5547 5544 5541 5537 5533 5529 5524 5521 5516 5511 5506 5502 5497 5492 5486 5480 5474 5467